| time (UTC) | temp C | wind direction | speed KPH | gust KPH | rain 1hr cm | rain 24hr cm | rain mn cm | humidity % | barometer mb |
| 20260508043828 | 9 | 0.0 | 0.0 | 0.00 | 0.00 | 0.00 | 91 | 1004.3 | |
| 20260508042827 | 9 | 0.0 | 0.0 | 0.00 | 0.00 | 0.00 | 91 | 1004.1 | |
| 20260508041941 | 9 | 0.0 | 0.0 | 0.00 | 0.00 | 0.00 | 90 | 1004.1 | |
| 20260508040908 | 9 | 0.0 | 0.0 | 0.00 | 0.00 | 0.00 | 89 | 1004.1 | |
| 20260508035828 | 9 | 0.0 | 0.0 | 0.00 | 0.00 | 0.00 | 89 | 1004.1 | |
| 20260508034848 | 9 | 0.0 | 0.0 | 0.00 | 0.00 | 0.00 | 88 | 1004.1 | |
| 20260508033820 | 10 | 0.0 | 0.0 | 0.00 | 0.00 | 0.00 | 87 | 1004.1 | |
| 20260508032828 | 10 | 0.0 | 0.0 | 0.00 | 0.00 | 0.00 | 87 | 1004.1 | |
| 20260508031828 | 10 | 0.0 | 0.0 | 0.00 | 0.00 | 0.00 | 87 | 1004.1 | |
| 20260508030827 | 10 | 0.0 | 0.0 | 0.00 | 0.00 | 0.00 | 87 | 1004.2 | |
| 20260508025820 | 10 | 0.0 | 0.0 | 0.00 | 0.00 | 0.00 | 86 | 1004.2 | |
| 20260508024828 | 10 | 0.0 | 0.0 | 0.00 | 0.00 | 0.00 | 86 | 1004.2 | |
| 20260508023828 | 10 | 80 | 0.0 | 3.2 | 0.00 | 0.00 | 0.00 | 86 | 1004.2 |
| 20260508022827 | 10 | 120 | 0.0 | 3.2 | 0.00 | 0.00 | 0.00 | 85 | 1004.2 |
| 20260508021822 | 10 | 0.0 | 0.0 | 0.00 | 0.00 | 0.00 | 85 | 1004.2 | |
| 20260508020828 | 10 | 0.0 | 0.0 | 0.00 | 0.00 | 0.00 | 85 | 1004.2 | |
| 20260508015828 | 10 | 0.0 | 0.0 | 0.00 | 0.00 | 0.00 | 84 | 1004.2 | |
| 20260508014827 | 10 | 0.0 | 0.0 | 0.00 | 0.00 | 0.00 | 84 | 1004.1 | |
| 20260508013820 | 10 | 0.0 | 0.0 | 0.00 | 0.00 | 0.00 | 84 | 1004.2 | |
| 20260508012828 | 10 | 0.0 | 0.0 | 0.00 | 0.00 | 0.00 | 84 | 1004.2 | |
| 20260508011828 | 10 | 0.0 | 0.0 | 0.00 | 0.00 | 0.00 | 84 | 1004.2 | |
| 20260508010829 | 10 | 118 | 3.2 | 3.2 | 0.00 | 0.00 | 0.00 | 83 | 1004.1 |
| 20260508005819 | 10 | 107 | 3.2 | 8.0 | 0.00 | 0.00 | 0.00 | 83 | 1004.1 |
| 20260508004828 | 10 | 112 | 1.6 | 3.2 | 0.00 | 0.00 | 0.00 | 82 | 1004.1 |
| 20260508003828 | 10 | 144 | 1.6 | 3.2 | 0.00 | 0.00 | 0.00 | 82 | 1004.1 |
| 20260508002827 | 11 | 120 | 3.2 | 8.0 | 0.00 | 0.00 | 0.00 | 81 | 1004.1 |
| 20260508001819 | 11 | 98 | 4.8 | 8.0 | 0.00 | 0.00 | 0.00 | 81 | 1004.1 |
| 20260508000848 | 11 | 87 | 1.6 | 8.0 | 0.00 | 0.00 | 0.00 | 80 | 1004.1 |
| 20260507235829 | 11 | 90 | 3.2 | 3.2 | 0.00 | 0.00 | 0.00 | 80 | 1004.1 |
| 20260507234827 | 11 | 131 | 1.6 | 8.0 | 0.00 | 0.00 | 0.00 | 79 | 1004.1 |
| 20260507233859 | 11 | 99 | 0.0 | 3.2 | 0.00 | 0.00 | 0.00 | 79 | 1004.1 |
| 20260507232828 | 11 | 128 | 3.2 | 8.0 | 0.00 | 0.00 | 0.00 | 78 | 1004.1 |
| 20260507231828 | 11 | 74 | 1.6 | 8.0 | 0.00 | 0.00 | 0.00 | 78 | 1004.3 |
| 20260507230827 | 11 | 107 | 1.6 | 3.2 | 0.00 | 0.00 | 0.00 | 77 | 1004.1 |
| 20260507225820 | 11 | 117 | 1.6 | 3.2 | 0.00 | 0.00 | 0.00 | 77 | 1004.1 |
| 20260507224828 | 11 | 110 | 0.0 | 3.2 | 0.00 | 0.00 | 0.00 | 76 | 1004.1 |
| 20260507223828 | 11 | 104 | 1.6 | 3.2 | 0.00 | 0.00 | 0.00 | 75 | 1004.2 |
| 20260507222828 | 11 | 117 | 3.2 | 8.0 | 0.00 | 0.00 | 0.00 | 75 | 1004.3 |
| 20260507221900 | 11 | 140 | 8.0 | 12.9 | 0.00 | 0.00 | 0.00 | 74 | 1004.2 |
| 20260507220828 | 11 | 104 | 1.6 | 3.2 | 0.00 | 0.00 | 0.00 | 74 | 1004.5 |
| 20260507215828 | 11 | 208 | 3.2 | 8.0 | 0.00 | 0.00 | 0.00 | 73 | 1004.5 |
| 20260507214853 | 11 | 123 | 3.2 | 8.0 | 0.00 | 0.00 | 0.00 | 73 | 1004.5 |
| 20260507213819 | 11 | 0.0 | 0.0 | 0.00 | 0.00 | 0.00 | 74 | 1004.1 | |
| 20260507212828 | 11 | 0.0 | 0.0 | 0.00 | 0.00 | 0.00 | 74 | 1004.1 | |
| 20260507211828 | 12 | 0.0 | 0.0 | 0.00 | 0.00 | 0.00 | 74 | 1004.2 | |
| 20260507210827 | 12 | 68 | 1.6 | 3.2 | 0.00 | 0.00 | 0.00 | 74 | 1004.1 |
| 20260507205819 | 12 | 130 | 4.8 | 8.0 | 0.00 | 0.00 | 0.00 | 74 | 1004.1 |
| 20260507204828 | 12 | 0.0 | 0.0 | 0.00 | 0.00 | 0.00 | 75 | 1004.1 | |
| 20260507203828 | 12 | 69 | 1.6 | 3.2 | 0.00 | 0.00 | 0.00 | 75 | 1004.1 |
| 20260507202827 | 12 | 73 | 0.0 | 3.2 | 0.00 | 0.00 | 0.00 | 76 | 1004.1 |
| 20260507201840 | 12 | 88 | 1.6 | 3.2 | 0.00 | 0.00 | 0.00 | 75 | 1004.1 |
| 20260507200828 | 12 | 49 | 0.0 | 3.2 | 0.00 | 0.00 | 0.00 | 74 | 1003.8 |
| 20260507195828 | 12 | 0.0 | 0.0 | 0.00 | 0.00 | 0.00 | 73 | 1003.8 | |
| 20260507194827 | 12 | 81 | 1.6 | 3.2 | 0.00 | 0.00 | 0.00 | 73 | 1003.6 |
| 20260507193819 | 13 | 0.0 | 0.0 | 0.00 | 0.00 | 0.00 | 71 | 1003.8 | |
| 20260507192829 | 13 | 103 | 0.0 | 3.2 | 0.00 | 0.00 | 0.00 | 70 | 1003.6 |
| 20260507191828 | 13 | 92 | 0.0 | 3.2 | 0.00 | 0.00 | 0.00 | 69 | 1003.4 |
| 20260507190827 | 13 | 85 | 0.0 | 3.2 | 0.00 | 0.00 | 0.00 | 68 | 1003.4 |
| 20260507185819 | 13 | 123 | 1.6 | 8.0 | 0.00 | 0.00 | 0.00 | 67 | 1003.4 |
| 20260507184828 | 13 | 133 | 3.2 | 8.0 | 0.00 | 0.00 | 0.00 | 65 | 1003.2 |
| 20260507183828 | 14 | 90 | 1.6 | 3.2 | 0.00 | 0.00 | 0.00 | 64 | 1003.1 |
| 20260507182847 | 14 | 115 | 1.6 | 12.9 | 0.00 | 0.00 | 0.00 | 62 | 1003.0 |
| 20260507181819 | 15 | 109 | 1.6 | 3.2 | 0.00 | 0.00 | 0.00 | 59 | 1003.0 |
| 20260507180828 | 15 | 112 | 1.6 | 3.2 | 0.00 | 0.00 | 0.00 | 59 | 1003.0 |
| 20260507175828 | 15 | 111 | 3.2 | 12.9 | 0.00 | 0.00 | 0.00 | 58 | 1003.0 |
| 20260507174827 | 15 | 105 | 4.8 | 8.0 | 0.00 | 0.00 | 0.00 | 55 | 1003.0 |
| 20260507173819 | 15 | 106 | 0.0 | 3.2 | 0.00 | 0.00 | 0.00 | 55 | 1003.0 |
| 20260507172828 | 15 | 67 | 0.0 | 3.2 | 0.00 | 0.00 | 0.00 | 54 | 1002.9 |
| 20260507171827 | 15 | 143 | 4.8 | 12.9 | 0.00 | 0.00 | 0.00 | 53 | 1002.9 |
| 20260507170827 | 15 | 139 | 4.8 | 12.9 | 0.00 | 0.00 | 0.00 | 54 | 1002.9 |
| 20260507165819 | 15 | 37 | 3.2 | 8.0 | 0.00 | 0.00 | 0.00 | 54 | 1002.9 |
| 20260507164828 | 15 | 108 | 3.2 | 8.0 | 0.00 | 0.00 | 0.00 | 56 | 1002.9 |
| 20260507163827 | 15 | 256 | 3.2 | 12.9 | 0.00 | 0.00 | 0.00 | 55 | 1002.9 |
| 20260507162827 | 15 | 93 | 1.6 | 3.2 | 0.00 | 0.00 | 0.00 | 56 | 1002.9 |
| 20260507161819 | 15 | 126 | 1.6 | 3.2 | 0.00 | 0.00 | 0.00 | 58 | 1002.9 |
| 20260507160852 | 15 | 0.0 | 0.0 | 0.00 | 0.00 | 0.00 | 57 | 1003.3 | |
| 20260507155828 | 15 | 31 | 1.6 | 3.2 | 0.00 | 0.00 | 0.00 | 58 | 1003.3 |
| 20260507154827 | 15 | 79 | 1.6 | 3.2 | 0.00 | 0.00 | 0.00 | 57 | 1003.3 |
| 20260507153819 | 15 | 0.0 | 0.0 | 0.00 | 0.00 | 0.00 | 55 | 1003.3 | |
| 20260507152848 | 15 | 138 | 1.6 | 8.0 | 0.00 | 0.00 | 0.00 | 54 | 1003.3 |
| 20260507151828 | 15 | 0.0 | 0.0 | 0.00 | 0.00 | 0.00 | 56 | 1003.3 | |
| 20260507150827 | 15 | 129 | 1.6 | 8.0 | 0.00 | 0.00 | 0.00 | 56 | 1003.1 |
| 20260507145819 | 15 | 68 | 1.6 | 8.0 | 0.00 | 0.00 | 0.00 | 55 | 1003.3 |
| 20260507144827 | 16 | 118 | 1.6 | 8.0 | 0.00 | 0.00 | 0.00 | 54 | 1003.3 |
| 20260507143847 | 16 | 0.0 | 0.0 | 0.00 | 0.00 | 0.00 | 53 | 1003.3 | |
| 20260507142827 | 16 | 39 | 1.6 | 8.0 | 0.00 | 0.00 | 0.00 | 53 | 1003.4 |
| 20260507141839 | 16 | 0.0 | 0.0 | 0.00 | 0.00 | 0.00 | 53 | 1003.7 | |
| 20260507140848 | 16 | 78 | 4.8 | 8.0 | 0.00 | 0.00 | 0.00 | 53 | 1003.5 |
| 20260507135828 | 16 | 96 | 1.6 | 8.0 | 0.00 | 0.00 | 0.00 | 51 | 1003.7 |
| 20260507134827 | 16 | 122 | 1.6 | 8.0 | 0.00 | 0.00 | 0.00 | 54 | 1003.7 |
| 20260507133820 | 16 | 102 | 3.2 | 8.0 | 0.00 | 0.00 | 0.00 | 54 | 1003.7 |
| 20260507132828 | 16 | 88 | 3.2 | 8.0 | 0.00 | 0.00 | 0.00 | 56 | 1003.8 |
| 20260507131828 | 15 | 55 | 1.6 | 3.2 | 0.00 | 0.00 | 0.00 | 57 | 1003.6 |
| 20260507130827 | 15 | 122 | 6.4 | 12.9 | 0.00 | 0.00 | 0.00 | 57 | 1003.8 |
| 20260507125819 | 15 | 113 | 0.0 | 3.2 | 0.00 | 0.00 | 0.00 | 58 | 1004.0 |
| 20260507124827 | 15 | 66 | 0.0 | 3.2 | 0.00 | 0.00 | 0.00 | 60 | 1004.0 |
| 20260507123827 | 14 | 0.0 | 0.0 | 0.00 | 0.00 | 0.00 | 60 | 1004.0 | |
| 20260507122827 | 13 | 0.0 | 0.0 | 0.00 | 0.00 | 0.00 | 61 | 1003.9 | |
| 20260507121819 | 13 | 131 | 1.6 | 8.0 | 0.00 | 0.00 | 0.00 | 64 | 1003.9 |
| 20260507120827 | 13 | 0.0 | 0.0 | 0.00 | 0.00 | 0.00 | 65 | 1004.1 | |
| 20260507115827 | 13 | 0.0 | 0.0 | 0.00 | 0.00 | 0.00 | 64 | 1004.3 | |
| 20260507114827 | 13 | 0.0 | 0.0 | 0.00 | 0.00 | 0.00 | 64 | 1004.3 | |
| 20260507113820 | 13 | 0.0 | 0.0 | 0.00 | 0.00 | 0.00 | 63 | 1004.3 | |
| 20260507112828 | 13 | 0.0 | 0.0 | 0.00 | 0.00 | 0.00 | 65 | 1004.3 | |
| 20260507111828 | 13 | 5 | 1.6 | 3.2 | 0.00 | 0.00 | 0.00 | 65 | 1004.3 |
| 20260507110827 | 13 | 126 | 1.6 | 8.0 | 0.00 | 0.00 | 0.00 | 63 | 1004.3 |
| 20260507105848 | 13 | 0.0 | 0.0 | 0.00 | 0.00 | 0.00 | 63 | 1004.7 | |
| 20260507104827 | 13 | 42 | 1.6 | 3.2 | 0.00 | 0.00 | 0.00 | 64 | 1004.7 |
| 20260507103839 | 13 | 135 | 1.6 | 8.0 | 0.00 | 0.00 | 0.00 | 66 | 1004.7 |
| 20260507102827 | 13 | 59 | 1.6 | 3.2 | 0.00 | 0.00 | 0.00 | 66 | 1004.7 |
| 20260507101827 | 13 | 91 | 1.6 | 3.2 | 0.00 | 0.00 | 0.00 | 67 | 1004.7 |
| 20260507100827 | 13 | 114 | 1.6 | 3.2 | 0.00 | 0.00 | 0.00 | 66 | 1004.7 |
| 20260507095819 | 13 | 73 | 1.6 | 3.2 | 0.00 | 0.00 | 0.00 | 65 | 1004.7 |
| 20260507094827 | 13 | 131 | 4.8 | 8.0 | 0.00 | 0.00 | 0.00 | 65 | 1004.7 |
| 20260507093827 | 13 | 0.0 | 0.0 | 0.00 | 0.00 | 0.00 | 65 | 1004.7 | |
| 20260507092827 | 13 | 95 | 3.2 | 8.0 | 0.00 | 0.00 | 0.00 | 66 | 1004.7 |
| 20260507091819 | 13 | 182 | 1.6 | 8.0 | 0.00 | 0.00 | 0.00 | 67 | 1004.7 |
| 20260507090827 | 13 | 33 | 1.6 | 3.2 | 0.00 | 0.00 | 0.00 | 68 | 1004.7 |
| 20260507085827 | 12 | 0.0 | 0.0 | 0.00 | 0.00 | 0.00 | 69 | 1004.7 | |
| 20260507084827 | 12 | 64 | 0.0 | 3.2 | 0.00 | 0.00 | 0.00 | 71 | 1004.7 |
| 20260507083839 | 12 | 134 | 4.8 | 8.0 | 0.00 | 0.00 | 0.00 | 71 | 1004.7 |
| 20260507082827 | 12 | 0.0 | 0.0 | 0.00 | 0.00 | 0.00 | 72 | 1004.7 | |
| 20260507081827 | 12 | 0.0 | 0.0 | 0.00 | 0.00 | 0.00 | 71 | 1004.7 | |
| 20260507080827 | 12 | 62 | 1.6 | 8.0 | 0.00 | 0.00 | 0.00 | 74 | 1004.7 |
| 20260507075819 | 12 | 0.0 | 0.0 | 0.00 | 0.00 | 0.00 | 73 | 1004.7 | |
| 20260507074828 | 12 | 67 | 1.6 | 3.2 | 0.00 | 0.00 | 0.00 | 73 | 1004.7 |
| 20260507073848 | 11 | 116 | 1.6 | 3.2 | 0.00 | 0.00 | 0.00 | 70 | 1004.7 |
| 20260507072937 | 11 | 113 | 0.0 | 3.2 | 0.00 | 0.00 | 0.00 | 72 | 1004.8 |
| 20260507071819 | 10 | 355 | 0.0 | 3.2 | 0.00 | 0.00 | 0.00 | 74 | 1005.0 |
| 20260507070827 | 9 | 94 | 1.6 | 3.2 | 0.00 | 0.00 | 0.00 | 75 | 1004.8 |
| 20260507065828 | 8 | 0.0 | 0.0 | 0.00 | 0.00 | 0.00 | 77 | 1004.8 | |
| 20260507064827 | 8 | 0.0 | 0.0 | 0.00 | 0.00 | 0.00 | 79 | 1004.6 | |
| 20260507063819 | 7 | 0.0 | 0.0 | 0.00 | 0.00 | 0.00 | 82 | 1004.6 | |
| 20260507062827 | 7 | 0.0 | 0.0 | 0.00 | 0.00 | 0.00 | 82 | 1004.8 | |
| 20260507061828 | 6 | 0.0 | 0.0 | 0.00 | 0.00 | 0.00 | 87 | 1004.6 | |
| 20260507060847 | 4 | 0.0 | 0.0 | 0.00 | 0.00 | 0.00 | 93 | 1004.6 | |
| 20260507055839 | 3 | 0.0 | 0.0 | 0.00 | 0.00 | 0.00 | 95 | 1004.6 | |
| 20260507054847 | 3 | 0.0 | 0.0 | 0.00 | 0.00 | 0.00 | 95 | 1004.5 | |
| 20260507053820 | 2 | 0.0 | 0.0 | 0.00 | 0.00 | 0.00 | 96 | 1004.5 | |
| 20260507052827 | 2 | 0.0 | 0.0 | 0.00 | 0.00 | 0.00 | 96 | 1004.4 | |
| 20260507051828 | 2 | 0.0 | 0.0 | 0.00 | 0.00 | 0.00 | 96 | 1004.2 | |
| 20260507050827 | 1 | 0.0 | 0.0 | 0.00 | 0.00 | 0.00 | 96 | 1003.8 | |
| 20260507045820 | 1 | 0.0 | 0.0 | 0.00 | 0.00 | 0.00 | 96 | 1004.2 | |
| 20260507044827 | 1 | 0.0 | 0.0 | 0.00 | 0.00 | 0.00 | 96 | 1004.2 |